Probability
0 0 0 0 0 0 0 0 0 0 0 0 0 0 0 0 0 0 0 0 0 0 0 0 0 0 0 0 0 0 0 0 0 0 0 0 0 0 0 0 0 0 0 0
0 0 0 0 0 0 0 0 0 0 0 0 0 0 0 0 0 0 0 0 0 0 0 0 0 0 0 0 0 0 0 0 0 0 0 0 0 0 0 0 0 0 0 0
0 0 0 0 0 0 0 0 0 0 0 0 0 0 0 0 0 0 0 0 0 0 0 0 0 0 0 0 0 0 0 0 0 0 0 0 0 0 0 0 0 0 0 0
0 0 0 0 0 0 0 0 0 0 0 0 0 0 0 0 0 0 0 0 0 0 0 0 0 0 0 0 0 0 0 0 0 0 0 0 0 0 0 0 0 0 0 0
0 0 0 0 0 0 0 0 0 0 0 0 0 0 0 0 0 0 0 0 0 0 0 0 0 0 0 0 0 0 0 0 0 0 0 0 0 0 0 0 0 0 0 0
0 0 0 0 0 0 0 0 0 0 0 0 0 0 0 0 0 0 0 0 0 0 0 0 0 0 0 0 0 0 0 0 0 0 0 0 0 0 0 0 0 0 0 0
0 0 0 0 0 0 0 0 0 0 0 0 0 0 0 0 0 0 0 0 0 0 0 0 0 0 0 0 0 0 0 0 0 0 0 0 0 0 0 0 0 0 0 0
0 0 0 0 0 0 0 0 0 0 0 0 0 0 0 0 0 0 0 0 0 0 0 0 0 0 0 0 0 0 0 0 0 0 0 0 0 0 0 0 0 0 0 0
0 0 0 0 0 0 0 0 0 0 0 0 0 0 0 0 0 0 0 0 0 0 0 0 0 0 0 0 0 0 0 0 0 0 0 0 0 0 0 0 0 0 0 0
0 0 0 0 0 0 0 0 0 0 0 0 0 0 0 0 0 0 0 0 0 0 0 0 0 0 0 0 0 0 0 0 0 0 0 0 0 0 0 0 0 0 0 0
0 0 0 0 0 0 0 0 0 0 0 0 0 0 0 0 0 0 0 0 0 0 0 0 0 0 0 0 0 0 0 0 0 0 0 0 0 0 0 0 0 0 0 0
0 0 0 0 0 0 0 0 0 0 0 0 0 0 0 0 0 0 0 0 0 0 0 0 0 0 0 0 0 0 0 0 0 0 0 0 0 0 0 0 0 0 0 0
0 0 0 0 0 0 0 0 0 0 0 0 0 0 0 0 0 0 0 0 0 0 0 0 0 0 0 0 0 0 0 0 0 0 0 0 0 0 0 0 0 0 0 0
0 0 0 0 0 0 0 0 0 0 0 0 0 0 0 0 0 0 0 0 0 0 0 0 0 0 0 0 0 0 0 0 0 0 0 0 0 0 0 0 0 0 0 0
0 0 0 0 0 0 0 0 0 0 0 0 0 0 0 0 0 0 0 0 0 0 0 0 0 0 0 0 0 0 0 0 0 0 0 0 0 0 0 0 0 0 0 0
0 0 0 0 0 0 0 0 0 0 0 0 0 0 0 0 0 0 0 0 0 0 0 0 0 0 0 0 0 0 0 0 0 0 0 0 0 0 0 0 0 0 0 0
0 0 0 0 0 0 0 0 0 0 0 0 0 0 0 0 0 0 0 0 0 0 0 0 0 0 0 0 0 0 0 0 0 0 0 0 0 0 0 0 0 0 0 0
0 0 0 0 0 0 0 0 0 0 0 0 0 0 0 0 0 0 0 0 0 0 0 0 0 0 0 0 0 0 0 0 0 0 0 0 0 0 0 0 0 0 0 0
0 0 0 0 0 0 0 0 0 0 0 0 0 0 0 0 0 0 0 0 0 0 0 0 0 0 0 0 0 0 0 0 0 0 0 0 0 0 0 0 0 0 0 0
0 0 0 0 0 0 0 0 0 0 0 0 0 0 0 0 0 0 0 0 0 0 0 0 0 0 0 0 0 0 0 0 0 0 0 0 0 0 0 0 0 0 0 0
0 0 0 0 0 0 0 0 0 0 0 0 0 0 0 0 0 0 0 0 0 0 0 0 0 0 0 0 0 0 0 0 0 0 0 0 0 0 0 0 0 0 0 0
0 0 0 0 0 0 0 0 0 0 0 0 0 0 0 0 0 0 0 0 0 0 0 0 0 0 0 0 0 0 0 0 0 0 0 0 0 0 0 0 0 0 0 0
0 0 0 0 0 0 0 0 0 0 0 0 0 0 0 0 0 0 0 0 0 0 0 0 0 0 0 0 0 0 0 0 0 0 0 0 0 0 0 0 0 0 0 0
0 0 0 0 0 0 0 0 0 0 0 0 0 0 0 0 0 0 0 0 0 0 0 0 0 0 0 0 0 0 0 0 0 0 0 0 0 0 0 0 0 0 0 0
0 0 0 0 0 0 0 0 0 0 0 0 0 0 0 0 0 0 0 0 0 0 0 0 0 0 0 0 0 0 0 0 0 0 0 0 0 0 0 0 0 0 0 0
0 0 0 0 0 0 0 0 0 0 0 0 0 0 0 0 0 0 0 0 0 0 0 0 0 0 0 0 0 0 0 0 0 0 0 0 0 0 0 0 0 0 0 0
Height
5698 5700 5700 5701 5701 5701 5701 5701 5702 5702 5702 5702 5703 5704 5705 5705 5705 5705 5705 5705 5705 5704 5704 5704 5705 5706 5707 5708 5709 5710 5711 5712 5713 5714 5715 5716 5717 5718 5718 5718 5719 5719 5719 5719
5691 5692 5694 5693 5693 5693 5693 5693 5694 5695 5695 5694 5695 5696 5697 5697 5697 5697 5697 5696 5696 5696 5695 5695 5696 5697 5698 5699 5700 5701 5702 5703 5704 5705 5706 5707 5707 5708 5708 5708 5708 5709 5709 5709
5684 5686 5686 5685 5685 5686 5686 5686 5687 5687 5687 5686 5687 5688 5690 5690 5690 5689 5689 5688 5688 5688 5687 5687 5687 5688 5689 5690 5690 5691 5692 5693 5694 5695 5696 5697 5697 5698 5698 5698 5698 5698 5698 5698
5677 5678 5678 5678 5678 5678 5678 5679 5679 5679 5679 5679 5680 5679 5683 5682 5682 5682 5681 5681 5680 5679 5679 5678 5678 5679 5680 5680 5681 5681 5683 5684 5684 5685 5686 5687 5687 5688 5688 5688 5687 5687 5687 5687
5669 5670 5670 5670 5671 5671 5671 5671 5672 5671 5671 5671 5672 5672 5675 5675 5674 5674 5673 5673 5672 5671 5671 5670 5670 5670 5671 5671 5671 5672 5673 5674 5675 5675 5676 5676 5677 5677 5677 5677 5677 5677 5677 5677
5663 5663 5663 5663 5664 5664 5664 5664 5664 5663 5663 5664 5666 5665 5666 5667 5667 5666 5665 5665 5664 5663 5663 5662 5662 5662 5662 5662 5662 5663 5663 5664 5665 5665 5666 5666 5666 5666 5666 5666 5666 5666 5666 5666
5655 5656 5655 5656 5656 5656 5657 5657 5656 5656 5656 5657 5658 5657 5659 5659 5659 5659 5658 5657 5656 5655 5655 5655 5654 5654 5653 5653 5653 5653 5654 5654 5654 5655 5655 5655 5655 5655 5656 5656 5656 5656 5656 5655
5646 5648 5648 5648 5649 5649 5649 5650 5650 5650 5649 5649 5649 5650 5653 5652 5651 5650 5650 5649 5648 5647 5647 5646 5646 5645 5645 5645 5644 5644 5644 5644 5644 5645 5645 5645 5645 5645 5645 5645 5645 5645 5645 5645
5638 5640 5641 5641 5641 5641 5641 5642 5643 5642 5641 5641 5641 5643 5645 5645 5643 5642 5642 5641 5640 5639 5639 5638 5638 5637 5637 5636 5636 5636 5635 5635 5635 5635 5635 5635 5635 5634 5634 5634 5634 5633 5633 5633
5630 5631 5632 5632 5633 5633 5634 5635 5635 5634 5633 5633 5634 5635 5637 5636 5635 5635 5634 5633 5632 5631 5631 5630 5630 5629 5628 5628 5627 5627 5627 5626 5626 5625 5625 5625 5624 5624 5624 5623 5623 5623 5622 5622
5622 5623 5624 5625 5626 5626 5627 5627 5627 5626 5626 5626 5626 5630 5629 5629 5627 5626 5626 5625 5624 5624 5623 5623 5622 5621 5620 5619 5619 5618 5618 5617 5617 5616 5615 5615 5614 5614 5614 5613 5613 5612 5611 5611
5614 5615 5616 5617 5618 5618 5619 5619 5619 5619 5619 5618 5617 5622 5621 5621 5619 5618 5618 5617 5616 5615 5615 5614 5614 5613 5612 5611 5610 5609 5608 5608 5607 5606 5606 5605 5604 5604 5603 5603 5602 5602 5601 5600
5606 5606 5607 5608 5611 5611 5611 5611 5611 5611 5610 5609 5609 5614 5613 5612 5610 5610 5609 5608 5607 5607 5606 5606 5606 5605 5603 5602 5601 5600 5599 5599 5598 5597 5596 5595 5594 5594 5593 5592 5591 5591 5590 5589
5596 5598 5600 5601 5602 5602 5602 5603 5603 5602 5601 5601 5602 5603 5604 5603 5602 5601 5600 5599 5599 5598 5598 5598 5597 5596 5595 5594 5593 5591 5591 5589 5588 5587 5587 5586 5585 5584 5583 5582 5581 5581 5580 5579
5587 5589 5591 5592 5593 5593 5594 5595 5595 5594 5594 5593 5594 5594 5594 5594 5593 5592 5591 5591 5590 5590 5589 5589 5588 5588 5587 5586 5584 5583 5582 5581 5579 5578 5578 5577 5576 5575 5574 5573 5572 5571 5570 5568
5578 5580 5582 5583 5584 5584 5584 5586 5586 5586 5586 5585 5585 5585 5586 5584 5584 5583 5583 5582 5581 5581 5581 5580 5580 5579 5578 5577 5576 5575 5573 5572 5571 5570 5569 5567 5566 5566 5565 5564 5563 5561 5560 5558
5570 5572 5573 5574 5576 5574 5575 5579 5578 5578 5578 5577 5576 5578 5576 5575 5575 5574 5573 5573 5573 5572 5572 5571 5571 5570 5569 5568 5567 5566 5565 5563 5562 5561 5560 5559 5557 5556 5555 5554 5553 5552 5550 5548
5562 5564 5564 5565 5567 5565 5571 5570 5570 5569 5569 5569 5568 5568 5567 5566 5565 5565 5564 5564 5564 5564 5563 5563 5562 5562 5561 5560 5559 5558 5556 5555 5554 5552 5551 5550 5548 5547 5546 5545 5543 5542 5540 5539
5555 5556 5556 5556 5556 5557 5560 5561 5561 5560 5560 5560 5559 5559 5558 5556 5556 5556 5555 5555 5555 5554 5554 5554 5553 5553 5552 5551 5550 5549 5548 5546 5545 5544 5542 5540 5539 5538 5536 5535 5533 5531 5530 5528
5546 5547 5548 5548 5548 5549 5553 5553 5552 5552 5551 5552 5551 5550 5549 5548 5548 5549 5547 5546 5546 5545 5545 5545 5544 5544 5543 5542 5542 5541 5539 5538 5537 5535 5533 5532 5530 5528 5527 5525 5524 5522 5520 5518
5538 5538 5539 5540 5539 5541 5543 5544 5543 5544 5544 5542 5541 5541 5540 5539 5539 5539 5538 5537 5537 5536 5536 5536 5536 5535 5534 5534 5533 5532 5531 5530 5528 5526 5524 5523 5521 5519 5518 5516 5514 5512 5510 5508
5529 5530 5531 5531 5531 5535 5535 5534 5535 5535 5534 5532 5532 5531 5531 5531 5530 5530 5529 5528 5528 5528 5527 5527 5527 5526 5526 5525 5524 5523 5522 5521 5519 5517 5515 5513 5512 5510 5508 5506 5504 5502 5500 5498
5521 5523 5523 5524 5527 5526 5526 5525 5526 5525 5525 5523 5523 5523 5522 5522 5522 5521 5521 5520 5519 5519 5519 5518 5518 5518 5517 5516 5516 5515 5513 5512 5510 5508 5506 5504 5502 5500 5498 5496 5494 5492 5490 5488
5514 5515 5515 5516 5517 5517 5517 5516 5517 5516 5515 5514 5514 5514 5514 5514 5514 5513 5513 5512 5511 5510 5510 5510 5509 5509 5509 5508 5507 5506 5504 5503 5501 5499 5497 5495 5493 5490 5488 5486 5484 5482 5480 5479
5506 5506 5506 5507 5509 5508 5508 5508 5508 5507 5507 5506 5506 5506 5506 5505 5505 5505 5504 5503 5503 5502 5501 5501 5501 5501 5500 5499 5498 5497 5495 5494 5492 5490 5488 5485 5483 5481 5479 5477 5475 5474 5472 5470
5499 5499 5499 5500 5501 5500 5501 5500 5499 5499 5499 5499 5498 5498 5497 5497 5497 5496 5496 5495 5495 5494 5494 5493 5493 5492 5492 5491 5489 5488 5486 5484 5483 5481 5479 5477 5475 5473 5471 5469 5467 5465 5464 5463
Wind_Speed
24 25 25 26 27 27 28 27 27 28 28 29 29 29 29 29 30 29 30 30 30 31 32 34 35 36 36 37 38 38 38 38 38 38 38 39 39 39 40 40 41 41 41 41
25 25 25 26 27 27 27 28 28 28 28 29 30 29 29 28 29 29 29 29 30 30 32 33 35 35 36 37 37 38 38 38 39 39 39 40 40 40 40 40 41 42 42 42
26 25 26 27 27 28 28 28 28 29 29 29 29 29 28 28 29 29 29 29 29 29 30 31 33 34 35 35 36 37 38 38 38 39 39 40 40 41 41 41 41 42 42 43
25 25 26 26 27 27 27 27 28 29 29 29 29 29 27 28 28 27 28 28 28 28 29 30 32 33 34 34 36 36 37 37 38 38 39 40 41 41 42 42 42 41 42 42
25 25 26 26 26 27 27 27 28 28 29 29 28 30 28 27 27 27 27 27 27 28 28 29 30 32 33 34 35 36 37 37 38 38 39 39 40 41 41 41 41 41 41 41
25 25 26 26 26 26 26 27 28 28 29 29 28 29 28 26 26 26 27 27 27 27 28 28 28 30 32 33 34 35 36 37 37 38 38 39 39 39 39 40 40 40 40 40
25 25 26 25 25 26 26 26 27 29 29 29 28 29 28 26 26 26 26 27 27 27 28 28 27 28 29 30 32 34 35 36 37 38 38 38 38 38 39 39 40 39 39 40
26 25 25 25 25 25 25 26 27 28 29 29 29 29 27 26 26 26 26 27 27 27 27 27 27 27 27 28 30 31 33 34 35 36 37 38 38 39 39 40 40 41 40 40
26 26 25 25 25 25 26 26 26 28 29 30 30 29 27 26 26 26 26 26 26 26 26 26 26 27 28 28 28 29 30 31 33 34 34 35 37 38 39 39 40 41 41 40
26 27 26 25 25 25 26 25 26 27 29 30 30 29 28 26 26 26 26 26 25 25 25 26 26 26 27 28 28 29 30 32 33 33 34 34 34 34 35 36 37 38 39 40
25 26 26 26 25 25 24 25 26 28 30 30 31 29 27 26 26 26 26 25 25 26 26 26 26 27 28 28 28 29 30 31 32 33 33 33 34 34 34 35 35 36 38 39
25 26 26 26 25 25 25 25 26 28 29 30 31 30 27 27 27 26 26 26 26 26 26 27 27 27 28 28 28 29 30 30 31 31 31 32 33 34 34 35 35 36 37 37
26 27 27 27 27 26 26 25 26 27 29 30 30 30 27 27 27 27 27 27 27 27 28 27 28 28 28 28 28 28 29 30 30 30 30 31 31 32 33 34 35 35 35 36
29 29 28 28 28 27 26 26 26 28 29 30 29 28 27 27 27 27 28 28 29 29 29 28 28 28 27 27 28 28 28 28 29 29 29 29 30 30 31 32 33 34 34 35
30 31 30 29 29 29 28 27 28 29 29 30 29 28 27 27 27 28 27 27 28 28 28 28 28 27 27 27 27 27 28 28 28 28 28 29 29 30 31 31 31 32 33 34
31 31 31 31 30 31 30 29 29 29 29 30 29 28 27 28 28 28 28 27 27 27 27 27 27 27 27 27 27 28 28 28 28 29 29 29 29 30 31 31 32 32 33 33
30 30 31 32 31 32 32 29 29 29 28 29 28 27 27 28 29 29 29 28 28 27 27 27 27 27 27 28 27 27 27 27 28 28 29 30 30 31 31 32 33 33 33 33
29 29 30 30 30 32 29 28 28 29 29 29 28 27 27 28 28 29 29 29 28 27 27 27 27 27 28 28 28 27 26 26 27 28 29 29 30 31 31 32 32 33 34 34
28 28 29 29 30 30 28 27 27 28 28 28 27 27 28 28 28 27 27 28 28 27 27 27 27 28 27 27 27 27 27 27 27 28 28 28 29 30 30 32 32 33 33 34
27 28 29 29 29 29 27 26 27 28 28 27 27 27 28 28 27 26 26 26 27 27 27 27 27 27 27 27 27 27 28 28 28 28 28 29 30 30 30 31 32 33 33 34
27 28 28 28 28 28 27 26 26 27 27 27 27 26 27 27 26 25 25 26 27 27 27 27 27 27 27 27 27 28 28 28 29 29 29 29 30 30 30 31 32 33 34 35
26 27 27 27 27 27 26 26 25 26 27 28 27 26 26 25 25 25 25 26 27 27 27 27 27 27 27 28 28 28 28 28 29 29 29 30 30 30 31 31 32 32 33 33
25 25 26 27 27 26 26 26 26 26 27 27 27 26 25 25 25 25 25 26 27 27 27 27 26 27 28 28 28 28 28 28 29 29 30 30 30 31 32 31 30 30 30 30
24 24 26 26 25 26 26 26 27 27 28 28 28 27 27 27 26 26 26 26 26 26 26 26 26 27 28 28 28 29 29 29 29 29 30 30 30 30 30 30 29 29 28 29
24 25 26 26 25 26 25 25 26 27 27 27 27 26 27 26 26 26 26 26 26 25 25 26 26 27 27 28 28 28 29 29 29 28 28 28 28 28 28 28 27 27 27 27
22 23 25 25 25 26 25 25 26 26 26 26 26 25 25 26 25 25 25 24 24 23 23 24 25 26 26 27 27 26 27 27 27 26 27 27 27 27 26 25 25 25 25 24
Wind_Direction
261 262 262 262 262 263 263 263 263 261 260 260 259 258 258 258 259 261 262 262 264 264 262 259 259 259 259 260 259 259 258 259 259 259 259 259 260 262 262 262 262 262 262 262
262 262 262 262 263 263 264 264 263 263 262 261 259 258 258 258 260 261 263 264 265 266 264 262 259 258 259 259 259 259 259 259 259 260 260 260 261 262 263 263 263 263 263 263
263 263 262 262 263 264 265 265 264 264 263 263 262 259 258 259 261 262 264 266 267 268 266 264 260 259 259 259 259 258 258 259 260 260 261 262 262 263 263 264 264 263 264 264
262 262 263 263 262 264 264 265 265 265 263 262 263 263 260 261 263 264 266 267 268 269 268 266 262 260 259 258 258 258 259 259 260 261 262 263 264 264 265 264 264 264 264 264
262 263 263 263 262 263 264 264 265 264 263 263 262 265 263 264 265 266 268 269 269 269 269 267 265 262 260 259 259 259 259 259 261 262 263 265 265 265 265 264 264 264 264 264
262 263 264 263 262 262 264 264 263 262 263 263 263 265 266 266 267 268 269 270 270 269 269 268 267 265 263 262 261 260 260 261 262 263 265 266 266 266 264 264 264 264 265 265
261 262 262 262 262 262 262 263 263 263 262 264 265 266 269 270 269 269 271 271 271 270 269 268 268 268 267 265 264 262 263 263 263 264 265 266 267 265 264 264 264 265 265 266
264 262 261 260 261 263 262 262 262 265 266 266 266 267 269 272 272 272 272 272 273 272 270 269 268 268 268 268 267 265 263 264 264 265 266 267 266 266 265 265 265 265 266 267
264 262 260 260 261 263 262 261 262 263 266 267 268 269 270 272 274 274 274 273 273 272 271 270 269 268 268 269 268 267 267 267 267 267 268 268 267 267 266 266 266 266 267 268
261 262 260 260 261 262 263 262 261 263 266 269 269 271 274 274 274 275 276 275 273 272 271 271 271 270 269 269 269 269 269 269 270 270 269 270 269 268 267 267 267 266 267 269
259 261 259 259 259 262 263 262 263 265 267 270 272 273 274 274 275 275 276 276 275 271 269 271 272 272 271 272 272 271 271 271 273 273 272 272 271 268 267 268 269 269 269 269
257 259 260 260 261 262 263 264 264 266 268 269 271 273 274 274 274 275 275 275 274 271 270 270 271 272 273 273 273 274 273 275 275 275 274 273 272 270 269 269 270 270 271 272
256 256 259 260 260 261 262 264 266 268 269 270 272 275 274 273 272 273 273 272 271 270 270 271 272 274 275 274 273 275 275 277 277 275 275 274 272 271 271 272 271 271 272 272
253 254 256 260 263 264 265 265 267 268 269 271 272 274 273 272 271 272 273 272 272 272 271 272 273 274 275 276 276 276 277 278 277 275 275 274 273 272 273 274 274 273 272 273
254 254 255 257 261 263 264 266 268 269 271 272 273 273 272 271 271 273 273 273 273 273 271 270 272 273 274 275 277 278 278 278 277 276 274 274 274 273 274 275 277 277 276 275
254 255 256 257 260 263 263 265 268 271 272 273 273 272 273 271 271 273 273 273 273 273 272 271 271 272 274 275 277 279 280 279 277 277 277 276 275 275 275 277 278 279 278 277
253 254 256 258 260 262 264 266 269 271 272 273 274 275 274 272 271 271 272 272 272 272 273 271 268 269 272 275 277 280 280 279 279 278 278 277 276 276 276 278 278 278 278 277
254 256 258 260 260 262 266 267 269 271 272 274 274 274 274 274 273 273 271 270 270 271 271 270 269 270 272 274 276 278 280 280 280 280 280 279 278 278 278 278 278 278 278 278
255 258 261 262 264 266 267 268 271 272 271 272 273 274 274 274 273 274 272 270 270 271 271 271 271 272 273 275 276 277 279 281 282 282 282 282 281 279 279 279 280 279 278 278
255 257 260 263 265 268 268 270 271 272 271 272 274 275 275 274 274 274 273 272 271 271 272 272 272 273 273 274 276 277 279 281 282 283 283 283 282 280 280 281 281 281 280 279
255 255 258 261 264 266 269 270 271 272 275 275 274 276 275 273 274 275 273 272 272 271 271 271 272 271 272 273 274 276 279 281 282 283 284 284 282 279 280 281 281 281 280 279
257 256 256 259 262 267 269 270 271 273 274 274 273 274 274 272 274 275 275 274 273 272 271 272 271 271 271 274 275 276 278 281 283 283 284 284 283 282 282 283 283 282 282 281
256 258 258 260 264 267 269 270 271 274 275 273 271 270 272 273 274 276 275 274 273 272 272 272 271 271 271 274 275 276 278 281 283 284 284 284 284 284 284 284 283 282 282 281
257 256 258 261 265 268 269 269 269 271 273 274 271 270 271 273 274 276 277 276 274 271 270 270 270 270 272 274 277 278 280 282 284 284 285 284 285 286 285 284 283 282 282 281
257 259 261 264 267 267 269 270 269 270 272 273 273 272 271 272 274 275 276 277 276 272 270 271 272 272 273 276 279 281 282 283 284 284 285 285 285 285 285 283 283 282 282 281
260 263 263 265 266 268 269 269 269 271 274 275 275 273 272 271 272 274 275 275 274 273 273 274 274 274 276 278 279 280 281 283 284 284 285 285 285 284 284 283 283 283 281 280